Regional Weather Roundup
Issued by NWS

Home | Current Version | Previous Version | Graphics & Text | Print | Product List | Glossary Off
Versions: 1 2 3 4 5 6 7 8 9 10 11 12 13 14 15 16 17 18 19 20 21 22 23 24 25 26 27 28 29 30 31 32 33 34 35 36 37 38 39 40 41 42 43 44 45 46 47 48 49 50

000
ASUS45 KBOU 190110
RWRCO

WEATHER ROUNDUP FOR COLORADO
NATIONAL WEATHER SERVICE DENVER/BOULDER CO
600 PM MST SUN FEB 18 2018

NOTE: "FAIR" INDICATES FEW OR NO CLOUDS BELOW 12000 FEET WITH NO
SIGNIFICANT WEATHER AND/OR OBSTRUCTIONS TO VISIBILITY.

COZ001>005-013-030-031-190200-
...NORTHWEST COLORADO...

CITY           SKY/WX    TMP DP  RH WIND       PRES   REMARKS
CRAIG          FAIR      43  22  43 SW9       29.44F
HAYDEN         FAIR      41  22  46 S6        29.46S
MEEKER         FAIR      46  20  35 S21G28    29.46S
RANGELY        FAIR      52  15  23 SW23G33   29.40F
RABBIT EARS PA FAIR      28  16  59 SW13G30   29.54F WCI  18
STEAMBOAT SPGS FAIR      44  17  33 CALM      29.46S
WALDEN         FAIR      34  18  51 SE5       29.51F WCI  30
$$

COZ006>008-011-190200-
...WEST CENTRAL VALLEYS...

CITY           SKY/WX    TMP DP  RH WIND       PRES   REMARKS
GRAND JUNCTION FAIR      56  18  22 SW17G24   29.47F
MONTROSE       FAIR      51  18  27 SW23G35   29.57S
EAGLE          FAIR      48  16  27 SW28G38   29.55S
RIFLE          FAIR      51  19  28 SW16      29.49F
DELTA          FAIR      57  20  23 SW24G31   29.51F
NUCLA          FAIR      52  18  25 S26G35    29.64R
$$

COZ017>023-064>068-190200-
...SOUTHWEST COLORADO...

CITY           SKY/WX    TMP DP  RH WIND       PRES   REMARKS
DURANGO        FAIR      47  20  34 E5        29.74F
CORTEZ         FAIR      48  15  26 SW5       29.69F
PAGOSA SPRINGS FAIR      43  15  32 SW3       29.78F
TELLURIDE      FAIR      38  16  40 SE20G26   29.74F
WOLF CREEK PAS FAIR      21  14  73 SW29G46   29.82S WCI   3
$$

COZ009-010-012-014-032>034-037-058>063-190200-
...CENTRAL COLORADO...

CITY           SKY/WX    TMP DP  RH WIND       PRES   REMARKS
ASPEN          FAIR      42  15  33 VRB3      29.58S
BUENA VISTA    FAIR      45   0  15 SE5       29.58R
COPPER MTN     FAIR      28   7  40 SW16G28   29.68S WCI  17
BERTHOUD PASS  FAIR      21  10  63 W18G37    29.65S WCI   6
COTTONWOOD PAS FAIR      43   3  19 W33G52    29.58R
GUNNISON       MOCLDY    41  15  35 S14       29.63S
GRANBY         FAIR      40  15  36 SW22G28   29.56S
KREMMLING      FAIR      46  14  27 SW23G41   29.52F
LEADVILLE      FAIR      31   8  38 SW12G22   29.63F WCI  22
MONARCH PASS   FAIR      25   9  50 SW32G41   29.80F WCI   7
SALIDA         FAIR      49   7  18 SW13G20   29.68R
SUNLIGHT       FAIR      27  16  63 SW18G38   29.65F WCI  13
WILKERSON PASS FAIR      30  -4  22 SW18G35   29.68R WCI  18
$$

COZ069>075-190200-
...SAN LUIS VALLEY/SANGRE DE CRISTO MOUNTAINS...

CITY           SKY/WX    TMP DP  RH WIND       PRES   REMARKS
ALAMOSA        FAIR      42  10  27 VRB5      29.72R
DEL NORTE      FAIR      40  15  34 SW21G38   29.70R
LA VETA PASS   FAIR      32  14  47 S44G75    29.70S WCI  15
SAGUACHE       FAIR      43  12  28 W23G37    29.67S
$$

COZ035-036-038>040-190200-
...NORTHERN COLORADO FRONT RANGE...

CITY           SKY/WX    TMP DP  RH WIND       PRES   REMARKS
DENVER INTL AP FAIR      54  14  20 SE5       29.43R
AURORA         PTCLDY    58   5  12 SW16      29.44R
FRONT RANGE AP PTCLDY    59  10  14 E9        29.44R
ERIE MUNI ARPT FAIR      52   9  18 CALM      29.46R
BOULDER MUN AP FAIR      57  12  17 W6        29.41R
CENTENNIAL     FAIR      57   7  13 SW15G24   29.45R
BROOMFIELD     PTCLDY    55   7  14 W7        29.44R
FORT COLLINS   FAIR      53  13  20 S8        29.43R
LONGMONT       FAIR      53  12  19 W7        29.43R
$$

COZ041-046-047-076>085-087-088-190200-
...PIKES PEAK/PALMER DIVIDE AND SOUTHERN FOOTHILLS...

CITY           SKY/WX    TMP DP  RH WIND       PRES   REMARKS
COLO. SPRINGS  MOCLDY    54  12  18 S20       29.49S
A. F. ACADEMY  FAIR      54  -3   9 W13G29    29.49F
SCHRIEVER AFB  NOT AVBL
CHEYENNE MTN   FAIR      52   5  15 SE8       29.47R
ELLICOTT         N/A    N/A N/A N/A SW21G29   29.50S
FALCON         FAIR      53  -3  10 SW12G25   29.54R
FORT CARSON    FAIR      56  12  17 SW17G26   29.48R
LIMON          FAIR      53   5  14 S10       29.45S
MONUMENT HILL  FAIR      50   1  13 W16G30    29.53S
CANON CITY     CLEAR     59  14  17 W13G21    29.52R
WALSENBURG     NOT AVBL
TRINIDAD       FAIR      56  14  19 W23G30    29.59R
$$

COZ042>045-048>051-090-091-190200-
...NORTHEAST COLORADO...

CITY           SKY/WX    TMP DP  RH WIND       PRES   REMARKS
GREELEY ARPT   FAIR      52  14  22 N13       29.42R
AKRON          FAIR      42  30  62 NE22G38   29.44R
BURLINGTON     FAIR      57  17  21 S14       29.42S
WRAY           FAIR      46  32  57 NE24G32   29.45R
YUMA           NOT AVBL
STERLING       FAIR      36  28  75 NE22G33   29.51R
HOLYOKE        FAIR      36  30  80 N21G33    29.52R
FORT MORGAN    FAIR      42  26  53 N23G37    29.48R
$$

COZ086-089-092>099-190200-
...SOUTHEAST COLORADO...

CITY           SKY/WX    TMP DP  RH WIND       PRES   REMARKS
PUEBLO         FAIR      61   9  12 CALM      29.48R
LA JUNTA       FAIR      63   4   9 SW23      29.48R
LAMAR          FAIR      57   7  13 SW9       29.44R
SPRINGFIELD      N/A     58   9  14 SW12      29.53R
$$



USA.gov is the U.S. government's official web portal to all federal, state and local government web resources and services.